STARLINK-11533, 62836

Orbit data source: Space-Track

STARLINK-11533, 62836 is a payload satellite owned by SpaceX/Seattle (US) in LEO that was launched on Mon, 27 Jan 2025 UTC via an FALCON 9 launch vehicle from the Air Force Eastern Test Range (AFETR). Payload-class satellites include a variety of spacecraft equipped with specific instruments for various scientific and technological missions. These include communications satellites like Starlink; space stations such as the ISS; scientific satellites like the Hubble; Earth observation satellites from companies like Planet Labs, Umbra, and HawkEye 360; GPS; miniature CubeSats for education and research; and military/defense satellites.

Loading next visibility...
Identifier
62836, 2025-019H
Orbit
LEO
Country
Flag of USUS
Related business
Manufacturer
SpaceX/Seattle
Mission
Operational Commercial Communications
Bus & Motor
STARLINK V2MD, Unknown motor
Mass
960 kg wet, ~910 kg dry
Launch date (UTC)
2025-01-27 (1 year ago)
Launch vehicle
FALCON 9
Launch site
Air Force Eastern Test Range (AFETR)
Object type
Payload
Rocket body
Debris
Shape & HBR
Box + 2 Pan, 18.1 m
Radar Cross Section
36.964 m², Large (>1 m²)

Expand to show TLE details & history
Last TLE update: 6 hours ago

TLE from 6 hours ago
0 STARLINK-11533
1 62836U 25019H   26110.55172138  .00177942  00000-0  13501-2 0  9996
2 62836  43.0002  53.7310 0002613  52.4388 307.6717 15.71025115 70463
Epoch: 2026-04-20T13:14Z
TLE epoch observation values (Epoch: 2026-04-20T13:14:28.727Z)
Latitude
0.00001°
Longitude
6.47109°
Altitude
354.662 km
Speed
7.699 km/s
True Right ascension
03h 34m 55s
True Declination
0° 00' 00"
Sunlit
Object was in daylight at epoch
Visualization orbit readout
Latitude
Unknown
Longitude
Unknown
Altitude
Unknown
Speed
Unknown
Apparent Right ascension
Unknown
Apparent Declination
Unknown
Sunlit
N/A
Visualization observer readout
Local Sidereal Time
02:01:09
Azimuth
Unknown
Elevation
Unknown
Doppler factor
Unknown
Orbital elements
Apogee altitude
359.708 km
Perigee altitude
356.188 km
Semi-major axis
6,736.085 km
Eccentricity
0.00026
Inclination
43.0002°
RAAN
53.731°
Arg. of periapsis
52.4388°
True anomaly
307.64799°
Mean anomaly
307.6717°
Eccentric anomaly
307.65985°
Mean motion
3.92583 °/min
Orbital period
91.7 mins
BSTAR
0.0013501
Loading maneuver chart data...
Computing Atmospheric mass density...
Loading historical data...
Loading historical data...
Loading historical data...
Loading historical data...
Loading historical data...
Loading historical data...
Loading historical data...

Documentation

Showing up to 5 results
|